Hamilton Airport, Ontario

2:50 AM EDT on August 25, 2016 (GMT -0400)
Hamilton

Weather History for CYHM - October, 2012

Change the Weather History Date:

Thursday, October 25, 2012

  Actual Average Record
Temperature  
Mean Temperature 61 °F -  
Max Temperature 75 °F 47 °F 75 °F (2012)
Min Temperature 47 °F 33 °F 32 °F (2002)
Degree Days  
Heating Degree Days 4    
Growing Degree Days 11 (Base 50)    
Moisture  
Dew Point 51 °F    
Average Humidity 86    
Maximum Humidity 100    
Minimum Humidity 40    
Precipitation  
Precipitation 0.00 in 0.10 in - ()
Sea Level Pressure  
Sea Level Pressure 30.05 in    
Wind  
Wind Speed 7 mph ()    
Max Wind Speed 15 mph    
Max Gust Speed 21 mph    
Visibility 6.1 miles    
Events Fog , Rain    
Averages and records for this station are not official NWS values.
T = Trace of Precipitation, MM = Missing Value Source: Averaged Metar Reports

Daily Weather History Graph

Daily Weather History Graph

Search for Another Location

Airport or City:

Trip Planner

Search our weather history database for the weather conditions in past years. The results will help you decide how hot, cold, wet, or windy it might be!

Date:

Astronomy

Oct. 25, 2012 Rise Set
Actual Time 7:46 AM EDT 6:20 PM EDT
Civil Twilight 7:17 AM EDT 6:49 PM EDT
Nautical Twilight 6:43 AM EDT 7:22 PM EDT
Astronomical Twilight 6:10 AM EDT 7:55 PM EDT
Moon 4:10 PM EDT 3:35 AM EDT
Length of Visible Light 11h 32m
Length of Day
10h 34m
Waxing Gibbous, 84% of the Moon is Illuminated
Oct 25
Waxing Gibbous
Oct 29
Full
Nov 6
Last Quarter
Nov 13
New
Nov 20
First Quarter

Hourly Weather History & Observations

Time (EDT) Temp. Dew Point Humidity Pressure Visibility Wind Dir Wind Speed Gust Speed Precip Events Conditions
12:00 AM 50.0 °F 50.0 °F 100% 30.10 in 0.8 mi NNE 9.2 mph - N/A Rain Light Rain
12:37 AM 50.0 °F 50.0 °F 100% 30.09 in 0.5 mi NE 8.1 mph - N/A Fog , Rain Light Rain
1:00 AM 50.0 °F 50.0 °F 100% 30.09 in 0.5 mi NNE 8.1 mph - N/A Fog , Rain Light Rain
1:51 AM 50.0 °F 50.0 °F 100% 30.08 in 0.0 mi NE 10.4 mph - N/A Fog Fog
2:00 AM 50 °F 50 °F 99% 30.08 in 0 mi NNE 8.1 mph - - Fog Heavy Fog
2:00 AM 50.0 °F 50.0 °F 100% 30.08 in 0.1 mi NNE 9.2 mph - N/A Fog Fog
3:00 AM 50.0 °F 50.0 °F 100% 30.08 in 0.1 mi NE 6.9 mph - N/A Fog Fog
4:00 AM 50.0 °F 50.0 °F 100% 30.08 in 0.2 mi NNE 5.8 mph - N/A Fog Fog
4:25 AM 50.0 °F 50.0 °F 100% 30.09 in 0.5 mi NNE 5.8 mph - N/A Fog Fog
5:00 AM 50.0 °F 50.0 °F 100% 30.08 in 0.5 mi NE 5.8 mph - N/A Fog Fog
5:39 AM 50.0 °F 50.0 °F 100% 30.08 in 0.1 mi NE 6.9 mph - N/A Fog Fog
6:00 AM 50.0 °F 50.0 °F 100% 30.08 in 0.1 mi NE 6.9 mph - N/A Fog Fog
6:40 AM 50.0 °F 50.0 °F 100% 30.08 in 0.0 mi NE 5.8 mph - N/A Fog Fog
7:00 AM 50.0 °F 50.0 °F 100% 30.08 in 0.1 mi NNE 5.8 mph - N/A Fog Fog
7:14 AM 50.0 °F 50.0 °F 100% 30.09 in 0.1 mi NNE 5.8 mph - N/A Fog Fog
7:41 AM 48.2 °F 48.2 °F 100% 30.08 in 0.0 mi NE 3.5 mph - N/A Fog Fog
8:00 AM 48 °F 48 °F 99% 30.08 in 0 mi NE 2.3 mph - - Fog Partial Fog
8:00 AM 48.2 °F 48.2 °F 100% 30.08 in 0.1 mi NE 3.5 mph - N/A Fog Fog
8:15 AM 48.2 °F 48.2 °F 100% 30.08 in 0.2 mi Calm Calm - N/A Fog Fog
8:24 AM 48.2 °F 48.2 °F 100% 30.08 in 0.8 mi East 3.5 mph - N/A   Scattered Clouds
8:46 AM 48.2 °F 48.2 °F 100% 30.08 in 1.0 mi East 2.3 mph - N/A   Scattered Clouds
9:00 AM 50.0 °F 50.0 °F 100% 30.08 in 1.5 mi NE 3.5 mph - N/A   Scattered Clouds
9:48 AM 53.6 °F 53.6 °F 100% 30.09 in 5.0 mi ESE 2.3 mph - N/A   Partly Cloudy
10:00 AM 55.4 °F 55.4 °F 100% 30.09 in 7.0 mi Calm Calm - N/A   Partly Cloudy
11:00 AM 62.6 °F 57.2 °F 82% 30.08 in 10.0 mi South 6.9 mph - N/A   Partly Cloudy
12:00 PM 69.8 °F 59.0 °F 68% 30.06 in 15.0 mi South 12.7 mph - N/A   Clear
1:00 PM 71.6 °F 57.2 °F 60% 30.04 in 15.0 mi South 15.0 mph - N/A   Clear
2:00 PM 74 °F 54 °F 40% 30.03 in 15 mi South 15.0 mph - -  
2:00 PM 73.4 °F 53.6 °F 50% 30.03 in 15.0 mi South 13.8 mph 20.7 mph N/A   Partly Cloudy
3:00 PM 75.2 °F 53.6 °F 47% 30.01 in 15.0 mi South 12.7 mph 19.6 mph N/A   Partly Cloudy
4:00 PM 75.2 °F 53.6 °F 47% 30.00 in 15.0 mi South 11.5 mph - N/A   Partly Cloudy
5:00 PM 73.4 °F 51.8 °F 47% 29.99 in 15.0 mi SSW 12.7 mph - N/A   Partly Cloudy
6:00 PM 69.8 °F 51.8 °F 53% 29.97 in 15.0 mi South 8.1 mph - N/A   Partly Cloudy
7:00 PM 55.4 °F 50.0 °F 82% 29.98 in 15.0 mi NE 6.9 mph - N/A   Partly Cloudy
8:00 PM 54 °F 50 °F 83% 29.98 in 15 mi East 5.8 mph - -  
8:00 PM 53.6 °F 50.0 °F 88% 29.98 in 15.0 mi East 6.9 mph - N/A   Clear
9:00 PM 62.6 °F 51.8 °F 68% 29.95 in 15.0 mi SSE 10.4 mph - N/A   Clear
10:00 PM 60.8 °F 50.0 °F 68% 29.94 in 15.0 mi SSE 9.2 mph - N/A   Partly Cloudy
11:00 PM 60.8 °F 50.0 °F 68% 29.94 in 15.0 mi South 10.4 mph - N/A   Partly Cloudy